Location: Dattensoll
(49.9928°N, 9.8954°E)
Time: 09:54:49
(UTC+00:00)

ARIANE 5 R/B - Pass Details

Date: 19 May 2025
Orbit: 615 x 647 km, 98.0° (Epoch: 20 June)

Event Time Altitude Azimuth Distance (km) Brightness Sun altitude
Exits shadow 23:01:15 28° 236° (SW) 1,182 3.7 -19.9°
Maximum altitude 23:02:20 31° 264° (W) 1,088 3.7 -19.9°
Drops below altitude 10° 23:06:14 10° 328° (NNW) 2,005 6.0 -20.0°
Sets 23:08:39 0° 338° (NNW) 2,922 7.3 -20.0°
